Time,TemperatureF,DewpointF,PressureIn,WindDirection,WindDirectionDegrees,WindSpeedMPH,WindSpeedGustMPH,Humidity,HourlyPrecipIn,Conditions,Clouds,dailyrainin,SoftwareType,DateUTC
2016-07-29 00:12:00,57.0,54.0,-100.00,North,-9999,-999.9,-999.0,86,-99.99,,,-99.99,,2016-07-29 05:12:00,
2016-07-29 00:22:00,56.0,54.0,-100.00,NNW,330,0.0,-999.0,90,-99.99,,,-99.99,,2016-07-29 05:22:00,
2016-07-29 00:31:00,55.0,54.0,-100.00,North,0,0.0,-999.0,93,-99.99,,,-99.99,,2016-07-29 05:31:00,
2016-07-29 00:42:00,54.0,54.0,-100.00,WSW,255,0.0,-999.0,94,-99.99,,,-99.99,,2016-07-29 05:42:00,
2016-07-29 00:51:00,54.0,54.0,-100.00,WSW,255,0.0,-999.0,94,-99.99,,,-99.99,,2016-07-29 05:51:00,
2016-07-29 01:05:00,54.0,54.0,-100.00,WSW,255,-999.9,-999.0,95,-99.99,,,-99.99,,2016-07-29 06:05:00,
2016-07-29 01:19:00,53.0,52.0,-100.00,West,260,0.0,0.0,95,-99.99,,,-99.99,,2016-07-29 06:19:00,
2016-07-29 01:29:00,53.0,52.0,-100.00,West,260,0.0,0.0,95,-99.99,,,-99.99,,2016-07-29 06:29:00,
2016-07-29 01:45:00,53.0,52.0,-100.00,SW,225,0.0,1.0,95,-99.99,,,-99.99,,2016-07-29 06:45:00,
2016-07-29 01:55:00,53.0,52.0,-100.00,SW,225,0.0,0.0,95,-99.99,,,-99.99,,2016-07-29 06:55:00,
2016-07-29 02:06:00,53.0,52.0,-100.00,WSW,240,1.0,2.0,94,-99.99,,,-99.99,,2016-07-29 07:06:00,
2016-07-29 02:15:00,53.0,52.0,-100.00,WSW,250,1.0,2.0,95,-99.99,,,-99.99,,2016-07-29 07:15:00,
2016-07-29 02:28:00,52.0,52.0,-100.00,ENE,65,0.0,0.0,95,-99.99,,,-99.99,,2016-07-29 07:28:00,
2016-07-29 03:03:00,51.0,50.0,-100.00,NE,45,0.0,0.0,95,-99.99,,,-99.99,,2016-07-29 08:03:00,
2016-07-29 03:13:00,51.0,50.0,-100.00,NE,45,0.0,0.0,95,-99.99,,,-99.99,,2016-07-29 08:13:00,
2016-07-29 03:23:00,52.0,50.0,-100.00,WSW,240,0.0,0.0,96,-99.99,,,-99.99,,2016-07-29 08:23:00,
2016-07-29 03:34:00,51.0,50.0,-100.00,West,265,0.0,1.0,95,-99.99,,,-99.99,,2016-07-29 08:34:00,
2016-07-29 03:46:00,51.0,50.0,-100.00,North,350,0.0,0.0,95,-99.99,,,-99.99,,2016-07-29 08:46:00,
2016-07-29 03:54:00,51.0,50.0,-100.00,North,350,0.0,0.0,95,-99.99,,,-99.99,,2016-07-29 08:54:00,
2016-07-29 04:04:00,51.0,50.0,-100.00,North,355,0.0,1.0,95,-99.99,,,-99.99,,2016-07-29 09:04:00,
2016-07-29 04:13:00,51.0,50.0,-100.00,North,350,0.0,1.0,95,-99.99,,,-99.99,,2016-07-29 09:13:00,
2016-07-29 04:23:00,50.0,50.0,-100.00,North,350,0.0,0.0,96,-99.99,,,-99.99,,2016-07-29 09:23:00,
2016-07-29 04:40:00,51.0,50.0,-100.00,North,5,0.0,-999.0,96,-99.99,,,-99.99,,2016-07-29 09:40:00,
2016-07-29 05:11:00,52.0,52.0,-100.00,NW,325,-999.9,-999.0,96,-99.99,,,-99.99,,2016-07-29 10:11:00,
2016-07-29 05:20:00,52.0,52.0,-100.00,North,350,0.0,-999.0,95,-99.99,,,-99.99,,2016-07-29 10:20:00,
2016-07-29 05:31:00,52.0,52.0,-100.00,NW,310,1.0,-999.0,94,-99.99,,,-99.99,,2016-07-29 10:31:00,
2016-07-29 05:40:00,52.0,52.0,-100.00,North,5,-999.9,-999.0,94,-99.99,,,-99.99,,2016-07-29 10:40:00,
2016-07-29 06:21:00,51.0,50.0,-100.00,NNW,345,0.0,-999.0,95,-99.99,,,-99.99,,2016-07-29 11:21:00,
2016-07-29 06:31:00,51.0,50.0,-100.00,SE,140,0.0,-999.0,96,-99.99,,,-99.99,,2016-07-29 11:31:00,
2016-07-29 06:46:00,52.0,52.0,-100.00,NNE,30,0.0,1.0,96,-99.99,,,-99.99,,2016-07-29 11:46:00,
2016-07-29 06:54:00,52.0,50.0,-100.00,SE,140,0.0,0.0,95,-99.99,,,-99.99,,2016-07-29 11:54:00,
2016-07-29 09:04:00,64.0,52.0,-100.00,NNE,15,3.0,5.0,65,-99.99,,,-99.99,,2016-07-29 14:04:00,
2016-07-29 09:14:00,65.0,54.0,-100.00,North,350,2.0,5.0,64,-99.99,,,-99.99,,2016-07-29 14:14:00,
2016-07-29 09:34:00,65.0,52.0,-100.00,NE,50,3.0,6.0,61,-99.99,,,-99.99,,2016-07-29 14:34:00,